CZ-6A DEB

Satellite information

Favourite Embed

Satellite Type and Status

DEBRISIN ORBIT

Key statistics

Satellite CZ-6A DEB at a glance.

Uptime

335

Days in orbit

Revolutions

≈ 14.3

Per day

Orbit

LEO

Low Earth Orbit

Inclination

89.0

Latest

Satellite identification and parameters

Extended collection of information and parameters for CZ-6A DEB.

Object identification

Identified? True

Debris? True

Object name: CZ-6A DEB

International designator: 2024-140LL

Object number (NORAD): 60961

Object ID (CCSDS): 60961

Country: PEOPLES REPUBLIC OF CHINA (PRC)

Current information (Y/N): Y

RCS size: SMALL

Orbital parameters

Period: 100.993 minutes

Inclination: 89.0143 deg

SMA: 7183.79 km

Apoapsis: 827.14 km

Periapsis: 784.169 km

RAAN: 313.8358 deg

Eccentricy: 0.0029908

Argument of periapsis: 247.1548 deg

Mean anomaly: 112.6487 deg

Mean motion: 14.25845111 rev/day

Mean motion (dot): 0.0000195 rev/day2

B* drag term: 0.00081046 1/REarth

Two-line elements (TLE)

Creation date: July 6, 2025, 4:10 a.m.

Reference frame: TEME

Reference center: EARTH

Epoch: July 5, 2025, 8:38 p.m. UTC

TLE line 0: 0 CZ-6A DEB

TLE line 1: 1 60961U 24140LL 25186.85976725 .00001950 00000-0 81046-3 0 9991

TLE line 2: 2 60961 89.0143 313.8358 0029908 247.1548 112.6487 14.25845111 46493

Live tracking on map

Real-time ground track for satellite CZ-6A DEB.

In-orbit conjunctions

A list of the most updated potential collisions computed for object CZ-6A DEB.

Target Orbit TCA Probability of collision Miss distance Type
NOAA 16 DEB SSO 2025-07-04 05:31:05 0.0001162821 185.0 (m) DEBRIS
FENGYUN 1C DEB SSO 2025-02-18 12:42:09 0.0002626108 250.0 (m) DEBRIS
COSMOS 2251 DEB LEO 2025-01-20 21:38:55 0.0001957781 400.0 (m) DEBRIS
THOR BURNER 2 R/B SSO 2024-12-06 15:45:46 0.0009019625 383.0 (m) ROCKET BODY
COSMOS 2251 DEB LEO 2024-10-28 19:57:02 0.0002303448 59.0 (m) DEBRIS

Associated space launch

18 Low Earth Orbit communication satellites with Ku, Q and V band payloads for the G60 constellation operated by Shanghai Spacecom Satellite Technology (SSST) with funding backed by the Shanghai local government. Initial constellation will consist of 1296 satellites by 2027 with long term plans to expand it to 12000 satellites.

CZ-6A DEB was lifted into orbit during the mission ‘Long March 6A | G60 Polar Group 01’, on board a Long March 6A space rocket.

The launch took place on Aug. 6, 2024, 6:42 a.m. from Launch Complex 9A.

For more information about the launch, click the button.

Launch to space Long March 6A | G60 Polar Group 01
Long March 6A | G60 Polar Group 01

Agency: N/A

Status: Launch Successful

Launch date: Aug. 6, 2024, 6:42 a.m. UTC

Rocket: Long March 6A

Launch pad: Launch Complex 9A

Location: Taiyuan Satellite Launch Center, People's Republic of China

...

Latest news about this satellite

News about space launch
Brightness of first Chinese broadband constellation satellites alarms astronomers

The first satellites of a Chinese broadband constellation are significantly brighter than those of Western systems, posing a new challenge for astronomers.

News about space launch
Chinese rocket stage breaks up into cloud of more than 700 pieces of space debris

HELSINKI — A Chinese Long March 6A rocket’s upper stage has fragmented into a cloud of over 700 pieces of space debris, adding to concerns about long-term orbital safety. China […]

News about space launch
China's Thousand Sails Megaconstellation Kicks Off with Dangerous Debris Field

China's Thousand Sails Megaconstellation Kicks Off with Dangerous Debris Field


Newsletter sign-up

Weekly statistics, charts and insights to help you stay on top of the space industry.